Flag for Kuwait Weather past 2 weeks in Kuwait City, Kuwait

Now
68 °F

Sunny.


Feels Like: 68 °F
Forecast: 46 / 67 °F
Wind: 16 mph from North

Location: Kuwait International Airport

Current Time: Dec 22, 2014 at 3:29:07 PM

Latest Report: Dec 22, 2014 at 3:00 PM


Visibility: 10 mi

Pressure: 30.04 "Hg

Humidity: 35%

Dew point: 39 °F

Location of Kuwait CityLocation

Historic Weather in Kuwait City — Graph

°F

Kuwait City temperature yesterday

Maximum temperature yesterday: 68 °F (at 12:00 AM)
Minimum temperature yesterday: 61 °F (at 4:00 AM)
Average temperature yesterday: 64 °F

Past Weeks' High & Low Weather Summary

 TemperatureHumidityPressure
High79 °F (Dec 8, 1:00 PM)100% (Dec 9, 7:00 AM)30.30 "Hg (Dec 9, 7:00 AM)
Low43 °F (Dec 13, 6:00 AM)21% (Dec 13, 1:00 PM)29.92 "Hg (Dec 21, 2:00 AM)
Average62 °F68%30.12 "Hg
* Reported Dec 7 2:00 PM — Dec 22 2:00 PM, Kuwait City, Weather by CustomWeather, © 2014

Note: Actual official high and low records may vary slightly from our data, if they occured in-between our weather recording intervals... More about our weather records

Advertising

Kuwait City weather history for previous 24 hours

 ConditionsComfort  
Time TempWeatherWind HumidityBarometerVisibility
2:00 PM
Dec 22
68 °FSunny.14 mph35%30.04 "Hg10 mi
1:00 PM66 °FSunny.15 mph40%30.04 "Hg10 mi
12:00 PM66 °FSunny.14 mph43%30.04 "Hg10 mi
11:00 AM63 °FSunny.12 mph52%30.09 "Hg10 mi
10:00 AM61 °FSunny.10 mph55%30.09 "Hg10 mi
9:00 AM57 °FSunny.10 mph59%30.09 "Hg10 mi
8:00 AM55 °FSunny.10 mph63%30.07 "Hg4 mi
7:00 AM52 °FSunny.9 mph72%30.09 "Hg10 mi
6:00 AM52 °FClear.9 mph72%30.07 "Hg10 mi
5:00 AM54 °FClear.10 mph72%30.07 "Hg10 mi
4:00 AM55 °FClear.10 mph67%30.04 "Hg10 mi
3:00 AM55 °FClear.10 mph72%30.07 "Hg10 mi
2:00 AM57 °FClear.13 mph67%30.07 "Hg10 mi
1:00 AM59 °FClear.13 mph59%30.04 "Hg5 mi
12:00 AM59 °FClear.14 mph63%30.04 "Hg5 mi
11:00 PM
Dec 21
61 °FClear.13 mph63%30.04 "Hg4 mi
10:00 PM61 °FClear.12 mph63%30.04 "Hg4 mi
9:00 PM63 °FClear.9 mph59%30.04 "Hg10 mi
8:00 PM63 °FClear.12 mph59%30.01 "Hg10 mi
7:00 PM64 °FClear.13 mph56%30.01 "Hg10 mi
6:00 PM66 °FPassing clouds.14 mph52%29.98 "Hg5 mi
5:00 PM66 °FPassing clouds.15 mph49%29.98 "Hg5 mi
4:00 PM66 °FPartly sunny.18 mph46%29.95 "Hg4 mi
3:00 PM68 °FPartly sunny.21 mph46%29.95 "Hg4 mi
Weather by CustomWeather, © 2014

See weather overviewHow to use our weather pages